Simultaneous Nadir Overpasses (SNOs) Predictions

Prediction of SNOs between NOAA-19 and NPP Satellite Orbit:

Table of predicted SNOs for the next 14.0 days since TLE Epoch: 10/10/2014
Index Date (NOAA-19) Time (NOAA-19) Lat,Lon (NOAA-19) SZA (NOAA-19 ) Date (NPP) Time (NPP) Lat,Lon (NPP) SZA (NPP ) Distance(km) Time Diff (sec)
1 10/22/2014 20:23:17 80.98,-177.22 95.05 10/22/2014 20:24:22 80.97,-177.16 95.01 1.18 65
2 10/22/2014 21:14:16 -80.98, -9.98 84.94 10/22/2014 21:15:07 -80.97, -9.80 84.99 3.27 51
3 10/22/2014 22:05:20 80.97, 157.40 95.06 10/22/2014 22:05:52 80.97, 157.46 95.03 1.21 32
4 10/22/2014 22:56:19 -80.97, -35.36 84.93 10/22/2014 22:56:37 -80.97, -35.17 84.97 3.25 18
5 10/22/2014 23:47:22 80.96, 132.39 95.02 10/22/2014 23:47:21 80.96, 132.46 95.01 1.28 1
6 10/23/2014</
